Powrót do katalogu

SL-8 DEB

AktywnyLEO
NORAD 21182·DEBRIS·🇷🇺 Russia

Wystrzelony Feb 12, 1991 z Plesetsk Cosmodrome

Loading…

Następne Przeloty (najbliższe 24 godziny)

TLE

ŚwieżeSource: Space-Track

Epoka: Sep 14, 2026, 05:45 UTC

1 21182U 91009AV  26257.24022365  .00000105  00000-0  10825-2 0  9993
2 21182  74.0022 354.1455 0152532 166.7899 220.2451 12.22087806583808

Śledź SL-8 DEB w czasie rzeczywistym z AllMySat

Download on the App Store